Terug naar catalogus

SL-16 DEB

ActiefLEO
NORAD 39715·DEBRIS·🇷🇺 Russia

Gelanceerd Dec 25, 1992 vanaf Baikonur Cosmodrome

Loading…

Volgende Passages (komende 24 uur)

TLE

VersSource: Space-Track

Epoch: Sep 13, 2026, 14:15 UTC

1 39715U 92093KF  26256.59395771  .00000572  00000-0  22682-3 0  9992
2 39715  71.0132 328.9994 0006427 277.5905  82.4498 14.33020107647181

Volg SL-16 DEB in realtime met AllMySat

Download on the App Store